This is the latest recevied weather packets stored in our database for station/object IN3MWE-10. If no packets are shown the sender has not sent any weather packets the latest 10 day(s).
| Time | Temp. | Humidity | Pressure | Rain* | Wind** | Luminosity | Snow |
|---|---|---|---|---|---|---|---|
| 1788624322 | 31.11° C | 40% | 980 hPa | - | - | - | - |
| 1788623422 | 36.67° C | 30% | 979.8 hPa | - | - | - | - |
| 1788622522 | 38.33° C | 29% | 979.8 hPa | - | - | - | - |
| 1788621622 | 38.33° C | 28% | 979.7 hPa | - | - | - | - |
| 1788620721 | 39.44° C | 26% | 979.6 hPa | - | - | - | - |
| 1788619820 | 41.67° C | 23% | 979.8 hPa | - | - | - | - |
| 1788618920 | 37.78° C | 27% | 979.8 hPa | - | - | - | - |
| 1788618020 | 38.33° C | 28% | 979.9 hPa | - | - | - | - |
| 1788617120 | 40° C | 24% | 979.9 hPa | - | - | - | - |
| 1788616220 | 42.22° C | 23% | 980 hPa | - | - | - | - |
| 1788615320 | 39.44° C | 26% | 980.2 hPa | - | - | - | - |
| 1788614420 | 32.22° C | 38% | 980.6 hPa | - | - | - | - |
| 1788613519 | 33.33° C | 37% | 980.6 hPa | - | - | - | - |
| 1788612619 | 35.56° C | 32% | 980.6 hPa | - | - | - | - |
| 1788611719 | 32.22° C | 37% | 980.8 hPa | - | - | - | - |
| 1788610824 | 40° C | 25% | 980.8 hPa | - | - | - | - |
| 1788609919 | 36.11° C | 30% | 980.9 hPa | - | - | - | - |
| 1788609019 | 35.56° C | 31% | 981.1 hPa | - | - | - | - |
| 1788608119 | 36.67° C | 29% | 981.1 hPa | - | - | - | - |
| 1788607219 | 39.44° C | 25% | 981.1 hPa | - | - | - | - |
| 1788606319 | 34.44° C | 33% | 981.4 hPa | - | - | - | - |
| 1788605418 | 33.89° C | 36% | 981.4 hPa | - | - | - | - |
| 1788604518 | 30° C | 43% | 981.6 hPa | - | - | - | - |
| 1788603618 | 29.44° C | 47% | 981.7 hPa | - | - | - | - |
| 1788602718 | 30.56° C | 42% | 981.6 hPa | - | - | - | - |
* Rain since midnight (hover to see other rain measurements)
** Current wind speed in m/s (hover to see current wind gust speed)